Location: Kuppenheim
(48.8299°N, 8.2568°E)
Time: 08:17:50
(UTC+00:00)

NOSS 2-2 (D) - Pass Details

Date: 20 June 2021
Orbit: 453 x 1754 km, 63.3° (Epoch: 24 July)

Event Time Altitude Azimuth Distance (km) Brightness Sun altitude
Exits shadow 01:31:06 22° 202° (SSW) 1,037 4.1 -12.7°
Maximum altitude 01:33:06 61° 127° (SE) 533 3.2 -12.6°
Drops below altitude 10° 01:36:47 10° 47° (NE) 1,741 7.2 -12.3°
Sets 01:39:09 0° 44° (NE) 2,753 8.6 -12.1°
